Location: Gateway
(26.5776°N, 81.7504°W)
Time: 12:18:17
(UTC+00:00)

Daily predictions for brighter satellites

Satellite Brightness Start Highest point End
(mag) Time Altitude Azimuth Time Altitude Azimuth Time Altitude Azimuth
Cosmos 2228 Rocket 3.3 23:33:54 10° N 23:38:20 54° E 23:42:48 10° SSE
Cosmos 1782 3.4 23:36:21 10° NNE 23:40:01 34° E 23:43:39 10° SSE
Cosmos 1833 Rocket 2.7 23:34:28 10° N 23:40:02 60° ENE 23:45:33 10° SSE
Cosmos 1486 Rocket 4.3 23:35:23 10° N 23:40:22 44° ENE 23:45:21 10° SE
Cosmos 2100 Rocket 4.3 23:36:18 10° S 23:42:40 81° W 23:49:02 10° N
Yuri Rocket 3.4 23:37:48 10° W 23:43:22 72° N 23:47:45 10° E
GPS 2-15 Rocket1 4.3 23:39:39 10° WSW 23:43:56 36° S 23:48:18 10° ESE
STARLINK-24 4.0 23:40:11 10° SW 23:44:09 62° NW 23:48:07 10° NNE
CSL-04 Rocket 4.3 23:42:00 10° SE 23:46:59 36° ENE 23:51:59 10° N
NOSS 3-1 (C) 3.1 23:43:49 10° SSW 23:48:56 62° ESE 23:54:32 10° NE
Cosmos 1805 Rocket 3.5 23:46:49 10° S 23:51:13 81° E 23:55:37 10° N
STARLINK-81 4.1 23:47:42 10° SW 23:51:39 58° NW 23:55:36 10° NNE
Cosmos 2061 Rocket 4.1 23:46:36 10° S 23:53:00 77° E 23:59:25 10° N
STARLINK-54 4.4 23:49:38 10° WSW 23:53:31 48° NW 23:57:25 10° NNE
NOAA 11 4.4 23:48:47 10° SSE 23:54:00 47° ENE 23:59:11 10° N
STARLINK-77 4.3 23:51:03 10° SW 23:54:57 52° NW 23:58:53 10° NNE
STARLINK-1023 2.8 23:53:15 10° SW 23:56:07 73° NW 23:59:00 10° NE
Cosmos 1633 2.8 23:52:48 10° S 23:56:20 73° W 23:59:54 10° N
